Weather in Artashat

Armenia     39°57′23″N   44°32′43″E
temp.,
°C
wind,
m/s
gust,
m/s
humid.,
%
clouds,
%
prec.,
mm/h
press.,
hPa
HPBL,
m
16 may, sun
sun1601:00+18ene11533 0.0 101111
04:00+16wsw11581 0.0 101211
07:00+18wnw11570 0.0 101331
10:00+23se23350 0.0 1012870
13:00+29se67200 0.0 10091721
16:00+30se77188 0.0 10061753
19:00+22w684395 0.1 1008230
22:00+19e33505 0.1 101018
17 may, mon
mon1701:00+17wnw225136 0.0 101015
04:00+16wsw005259 0.0 101011
07:00+18nw11530 0.0 101022
10:00+24sse13315 0.0 1009765
13:00+30sse5521100 0.0 10061631
16:00+22nne121146100 0.4 1006295
19:00+24nne22422 0.5 100497
22:00+18ne11480 0.5 100612
18 may, tue
tue1801:00+17wnw3346100 0.0 100737
04:00+18n2242100 0.0 100714
07:00+17wnw23460 0.0 100955
10:00+24nw233129 0.0 1008519
13:00+27n241998 0.0 10072844
16:00+29wnw3515100 0.0 10053896
19:00+25nnw472989 0.0 1007242
22:00+19wnw34435 0.0 101166
19 may, wed
wed1901:00+16nw22510 0.0 101249
04:00+14wnw11570 0.0 101328
07:00+16w11520 0.0 101563
10:00+22w11340 0.0 1014532
13:00+27wnw11240 0.0 10121571
16:00+29nne11185 0.0 10101917
19:00+28ene11265 0.0 101024
22:00+22ene22261 0.0 101114
20 may, thu
thu2001:00+19ne11320 0.0 101211
04:00+17w11380 0.0 101211
07:00+19wnw11430 0.0 101421
10:00+25ssw11280 0.0 1013600
13:00+30se24200 0.0 10101588
16:00+33ese44160 0.0 10082175
19:00+31se012956 0.0 100713
22:00+20nnw11480 0.3 101013